• In Schweiz
  • Länderverzeichnis
  • Für 7 Tage
  • Wassertemperatur
  • Satellitenkarten
  • Wetterkarte
  • Widgets
  • user-avatar
    Anmelden

    Stündliche Wetter Juigalpa

    Heute, 20 Januar, Samstag

    Zeit Temperatur Niederschläge Wind Luftdruck Luftfeuchtigkeit
    00:00 +24°C° 0 mm 7 m/S 752 mmHg 84%
    01:00 +24°C° 0 mm 6 m/S 752 mmHg 84%
    02:00 +24°C° 0 mm 6 m/S 752 mmHg 84%
    03:00 +23°C° 0 mm 6 m/S 751 mmHg 84%
    04:00 +23°C° 0 mm 6 m/S 752 mmHg 84%
    05:00 +23°C° 0 mm 6 m/S 752 mmHg 84%
    06:00 +23°C° 0 mm 5 m/S 752 mmHg 84%
    07:00 +24°C° 0 mm 6 m/S 752 mmHg 80%
    08:00 +26°C° 0 mm 7 m/S 752 mmHg 76%
    09:00 +28°C° 0 mm 7 m/S 753 mmHg 72%
    10:00 +29°C° 0 mm 7 m/S 752 mmHg 69%
    11:00 +30°C° 0 mm 7 m/S 752 mmHg 66%
    12:00 +32°C° 0 mm 7 m/S 752 mmHg 62%
    13:00 +32°C° 0 mm 7 m/S 751 mmHg 62%
    14:00 +32°C° 0 mm 7 m/S 750 mmHg 62%
    15:00 +32°C° 0 mm 6 m/S 750 mmHg 62%
    16:00 +30°C° 0 mm 6 m/S 750 mmHg 67%
    17:00 +29°C° 0 mm 5 m/S 750 mmHg 71%
    18:00 +27°C° 0 mm 5 m/S 750 mmHg 76%
    19:00 +27°C° 0 mm 4 m/S 751 mmHg 79%
    20:00 +26°C° 0 mm 4 m/S 751 mmHg 82%
    21:00 +26°C° 0 mm 4 m/S 752 mmHg 85%
    22:00 +26°C° 0 mm 4 m/S 752 mmHg 86%
    23:00 +25°C° 0 mm 4 m/S 751 mmHg 87%

    Morgen, 21 Januar, Sonntag

    Zeit Temperatur Niederschläge Wind Luftdruck Luftfeuchtigkeit
    00:00 +25°C° 0 mm 4 m/S 751 mmHg 88%
    01:00 +25°C° 0 mm 4 m/S 751 mmHg 88%
    02:00 +25°C° 0 mm 4 m/S 750 mmHg 89%
    03:00 +25°C° 0 mm 4 m/S 750 mmHg 90%
    04:00 +25°C° 0 mm 4 m/S 750 mmHg 89%
    05:00 +25°C° 0 mm 4 m/S 750 mmHg 88%
    06:00 +25°C° 0 mm 4 m/S 750 mmHg 88%
    07:00 +26°C° 0,1 mm 5 m/S 751 mmHg 84%
    08:00 +27°C° 0,1 mm 6 m/S 751 mmHg 81%
    09:00 +28°C° 0,1 mm 7 m/S 752 mmHg 78%
    10:00 +29°C° 0,1 mm 7 m/S 751 mmHg 73%
    11:00 +30°C° 0,1 mm 7 m/S 751 mmHg 68%
    12:00 +32°C° 0,1 mm 7 m/S 750 mmHg 63%
    13:00 +32°C° 0,1 mm 7 m/S 750 mmHg 63%
    14:00 +32°C° 0,1 mm 7 m/S 749 mmHg 64%
    15:00 +32°C° 0,1 mm 7 m/S 748 mmHg 64%
    16:00 +30°C° 0,1 mm 6 m/S 748 mmHg 69%
    17:00 +28°C° 0,1 mm 5 m/S 749 mmHg 75%
    18:00 +27°C° 0,1 mm 5 m/S 749 mmHg 81%
    19:00 +27°C° 0,1 mm 5 m/S 750 mmHg 83%
    20:00 +26°C° 0,1 mm 4 m/S 750 mmHg 85%
    21:00 +26°C° 0,1 mm 4 m/S 751 mmHg 86%
    22:00 +26°C° 0,1 mm 4 m/S 751 mmHg 87%
    23:00 +25°C° 0,1 mm 4 m/S 751 mmHg 88%

    übermorgen, 22 Januar, Montag

    Zeit Temperatur Niederschläge Wind Luftdruck Luftfeuchtigkeit
    00:00 +25°C° 0,1 mm 4 m/S 750 mmHg 88%
    01:00 +25°C° 0 mm 4 m/S 750 mmHg 89%
    02:00 +25°C° 0 mm 4 m/S 750 mmHg 89%
    03:00 +25°C° 0 mm 4 m/S 749 mmHg 90%
    04:00 +25°C° 0 mm 4 m/S 749 mmHg 89%
    05:00 +25°C° 0 mm 4 m/S 750 mmHg 89%
    06:00 +25°C° 0 mm 4 m/S 750 mmHg 89%
    07:00 +26°C° 0 mm 4 m/S 751 mmHg 83%
    08:00 +28°C° 0 mm 5 m/S 751 mmHg 77%
    09:00 +29°C° 0 mm 6 m/S 752 mmHg 71%
    10:00 +30°C° 0,1 mm 6 m/S 751 mmHg 67%
    11:00 +32°C° 0,1 mm 6 m/S 750 mmHg 63%
    12:00 +33°C° 0,1 mm 6 m/S 750 mmHg 59%
    13:00 +33°C° 0,8 mm 6 m/S 749 mmHg 61%
    14:00 +32°C° 0,8 mm 7 m/S 748 mmHg 64%
    15:00 +32°C° 0,8 mm 7 m/S 748 mmHg 67%
    16:00 +29°C° 0,3 mm 6 m/S 748 mmHg 72%
    17:00 +28°C° 0,3 mm 5 m/S 749 mmHg 78%
    18:00 +26°C° 0,3 mm 4 m/S 749 mmHg 83%
    19:00 +26°C° 0 mm 4 m/S 750 mmHg 84%
    20:00 +26°C° 0 mm 4 m/S 750 mmHg 86%
    21:00 +25°C° 0 mm 4 m/S 751 mmHg 87%
    22:00 +25°C° 0 mm 4 m/S 751 mmHg 88%
    23:00 +25°C° 0 mm 4 m/S 751 mmHg 88%

    23 Januar, Dienstag

    Zeit Temperatur Niederschläge Wind Luftdruck Luftfeuchtigkeit
    00:00 +25°C° 0 mm 5 m/S 750 mmHg 88%
    01:00 +25°C° 0,2 mm 4 m/S 750 mmHg 88%
    02:00 +25°C° 0,2 mm 4 m/S 750 mmHg 89%
    03:00 +25°C° 0,2 mm 4 m/S 749 mmHg 89%
    04:00 +25°C° 0,2 mm 4 m/S 749 mmHg 89%
    05:00 +25°C° 0,2 mm 4 m/S 750 mmHg 88%
    06:00 +25°C° 0,2 mm 4 m/S 750 mmHg 88%
    07:00 +25°C° 0,1 mm 5 m/S 751 mmHg 85%
    08:00 +26°C° 0,1 mm 5 m/S 751 mmHg 83%
    09:00 +27°C° 0,1 mm 6 m/S 752 mmHg 80%
    10:00 +27°C° 0,3 mm 6 m/S 751 mmHg 77%
    11:00 +28°C° 0,3 mm 6 m/S 751 mmHg 74%
    12:00 +29°C° 0,3 mm 7 m/S 750 mmHg 72%
    13:00 +29°C° 0,3 mm 7 m/S 750 mmHg 68%
    14:00 +30°C° 0,3 mm 7 m/S 749 mmHg 65%
    15:00 +30°C° 0,3 mm 7 m/S 748 mmHg 62%
    16:00 +29°C° 0,1 mm 7 m/S 749 mmHg 67%
    17:00 +28°C° 0,1 mm 6 m/S 749 mmHg 72%
    18:00 +27°C° 0,1 mm 6 m/S 749 mmHg 78%
    19:00 +26°C° 0,1 mm 6 m/S 750 mmHg 79%
    20:00 +26°C° 0,1 mm 6 m/S 751 mmHg 80%
    21:00 +24°C° 0,1 mm 6 m/S 751 mmHg 81%
    22:00 +24°C° 0 mm 6 m/S 751 mmHg 81%
    23:00 +25°C° 0 mm 5 m/S 751 mmHg 81%

    24 Januar, Mittwoch

    Zeit Temperatur Niederschläge Wind Luftdruck Luftfeuchtigkeit
    00:00 +25°C° 0 mm 5 m/S 751 mmHg 81%
    01:00 +25°C° 0,1 mm 5 m/S 750 mmHg 82%
    02:00 +23°C° 0,1 mm 5 m/S 750 mmHg 83%
    03:00 +23°C° 0,1 mm 4 m/S 750 mmHg 84%
    04:00 +23°C° 0,2 mm 5 m/S 750 mmHg 84%
    05:00 +23°C° 0,2 mm 5 m/S 750 mmHg 84%
    06:00 +23°C° 0,2 mm 5 m/S 751 mmHg 84%
    07:00 +24°C° 0 mm 6 m/S 751 mmHg 80%
    08:00 +27°C° 0 mm 6 m/S 752 mmHg 75%
    09:00 +28°C° 0 mm 7 m/S 752 mmHg 70%
    10:00 +29°C° 0,1 mm 7 m/S 751 mmHg 67%
    11:00 +31°C° 0,1 mm 8 m/S 751 mmHg 65%
    12:00 +32°C° 0,1 mm 8 m/S 750 mmHg 62%
    13:00 +31°C° 0,1 mm 8 m/S 750 mmHg 63%
    14:00 +30°C° 0,1 mm 7 m/S 749 mmHg 65%
    15:00 +29°C° 0,1 mm 7 m/S 748 mmHg 66%
    16:00 +28°C° 0 mm 6 m/S 749 mmHg 69%
    17:00 +27°C° 0 mm 6 m/S 749 mmHg 73%
    18:00 +26°C° 0 mm 5 m/S 750 mmHg 76%
    19:00 +26°C° 0 mm 5 m/S 750 mmHg 78%
    20:00 +25°C° 0 mm 5 m/S 751 mmHg 81%
    21:00 +25°C° 0 mm 5 m/S 751 mmHg 83%
    22:00 +25°C° 0 mm 5 m/S 751 mmHg 83%
    23:00 +23°C° 0 mm 4 m/S 751 mmHg 84%

    25 Januar, Donnerstag

    Zeit Temperatur Niederschläge Wind Luftdruck Luftfeuchtigkeit
    00:00 +23°C° 0 mm 4 m/S 750 mmHg 84%
    01:00 +23°C° 0 mm 4 m/S 750 mmHg 84%
    02:00 +23°C° 0 mm 5 m/S 750 mmHg 84%
    03:00 +23°C° 0 mm 5 m/S 750 mmHg 84%
    04:00 +23°C° 0 mm 5 m/S 750 mmHg 84%
    05:00 +23°C° 0 mm 5 m/S 750 mmHg 83%
    06:00 +23°C° 0 mm 5 m/S 751 mmHg 83%
    07:00 +25°C° 0 mm 5 m/S 751 mmHg 78%
    08:00 +27°C° 0 mm 6 m/S 751 mmHg 73%
    09:00 +28°C° 0 mm 7 m/S 752 mmHg 67%
    10:00 +29°C° 0 mm 7 m/S 751 mmHg 65%
    11:00 +30°C° 0 mm 7 m/S 751 mmHg 62%
    12:00 +32°C° 0 mm 7 m/S 750 mmHg 59%
    13:00 +32°C° 0,1 mm 6 m/S 750 mmHg 60%
    14:00 +32°C° 0,1 mm 6 m/S 749 mmHg 61%
    15:00 +32°C° 0,1 mm 6 m/S 748 mmHg 61%
    16:00 +30°C° 0,1 mm 6 m/S 749 mmHg 67%
    17:00 +28°C° 0,1 mm 5 m/S 749 mmHg 72%
    18:00 +27°C° 0,1 mm 5 m/S 749 mmHg 77%
    19:00 +26°C° 0 mm 5 m/S 750 mmHg 79%
    20:00 +26°C° 0 mm 5 m/S 750 mmHg 81%
    21:00 +25°C° 0 mm 5 m/S 751 mmHg 83%
    22:00 +25°C° 0 mm 5 m/S 751 mmHg 85%
    23:00 +23°C° 0 mm 4 m/S 751 mmHg 86%
    Mehr zeigen